Location: Labatut
(43.2617°N, 1.5158°E)
Time: 04:06:45
(UTC+00:00)

Daily predictions for brighter satellites

Satellite Brightness Start Highest point End
(mag) Time Altitude Azimuth Time Altitude Azimuth Time Altitude Azimuth
Cosmos 2228 Rocket 3.8 00:05:20 46° ENE 00:05:20 46° ENE 00:09:12 10° NNE
Cosmos 2082 Rocket 2.6 00:07:01 46° ESE 00:07:13 47° ESE 00:12:40 10° NE
Cosmos 1833 Rocket 3.2 00:08:10 43° W 00:09:26 51° WNW 00:14:55 10° NNE
Meteor 1-12 Rocket 4.5 00:04:45 10° N 00:10:38 68° ENE 00:11:47 55° SE
BREEZE-M DEB (TANK) 3.4 00:13:11 59° NE 00:13:11 59° NE 00:19:55 10° ESE
Cosmos 724 4.2 00:12:03 66° SW 00:12:57 84° WNW 00:18:50 10° NNE
Cosmos 1140 Rocket 4.1 00:22:28 42° W 00:23:17 45° WNW 00:28:19 10° N
ATLAS CENTAUR R/B 4.2 00:11:41 10° NW 00:25:29 79° SW 00:31:03 31° SSE
USA 267 3.6 00:19:54 10° NE 00:26:20 63° NNW 00:30:20 25° WSW
Cosmos 1400 Rocket 3.3 00:32:16 58° N 00:32:16 58° N 00:35:31 10° N
Cosmos 1733 Rocket 3.2 00:27:52 10° N 00:31:54 68° NE 00:31:54 68° NE
Resurs 1-4 Rocket 4.2 00:31:20 10° ENE 00:34:12 15° E 00:36:00 13° ESE
GP-B 3.7 00:31:10 10° N 00:35:02 47° WNW 00:35:02 47° WNW
Nimbus 7 Rocket 4.5 00:29:32 10° NNE 00:35:32 71° ESE 00:36:43 57° SSE
H-2A R/B 3.2 00:34:51 10° N 00:38:50 33° WNW 00:38:59 33° WNW
Cosmos 676 Rocket 4.1 00:42:47 58° SE 00:43:16 61° ESE 00:48:32 10° NNE
NOSS 3-4 (A) 3.8 00:36:36 10° NW 00:43:38 81° WSW 00:47:10 37° SSE
NOSS 3-4 (C) 3.8 00:36:43 10° NW 00:43:44 82° SW 00:47:19 36° SSE
Cosmos 2251 Rocket 4.0 00:44:26 44° W 00:45:16 48° WNW 00:50:22 10° N
Cosmos 407 Rocket 4.2 00:44:27 39° W 00:45:25 44° WNW 00:50:26 10° N
Cosmos 1346 Rocket 3.3 00:41:55 10° N 00:45:17 54° NE 00:45:17 54° NE
Cosmos 468 Rocket 4.1 00:43:22 10° NNW 00:48:40 72° ENE 00:49:48 53° SE
Cosmos 1954 Rocket 3.9 00:48:42 71° S 00:49:17 84° ESE 00:54:37 10° NNE
Cosmos 2315 Rocket 4.3 00:43:19 10° NNW 00:49:21 50° W 00:50:26 45° WSW
Okean 2 4.2 00:49:49 41° E 00:49:49 41° E 00:53:18 10° NNE
Cosmos 1190 Rocket 4.0 00:51:10 62° WSW 00:51:50 69° WNW 00:57:08 10° NNE
Nadezhda 2 Rocket 4.4 00:55:25 53° S 00:57:03 89° E 01:03:28 10° N
Cosmos 1763 Rocket 3.5 00:52:47 10° NNW 00:58:02 64° WSW 00:58:19 63° SW
Cosmos 1703 Rocket 4.4 00:58:55 40° ESE 00:59:20 41° E 01:03:31 10° NNE
Cosmos 2322 Rocket 4.3 00:54:55 10° N 00:59:27 24° NE 01:03:58 10° ESE
BREEZE-M R/B 4.3 00:59:28 33° SE 01:00:09 34° SE 01:08:57 10° ENE
Cosmos 1300 4.0 00:57:13 10° NNW 00:59:22 30° NW 00:59:22 30° NW
SL-14 R/B 4.3 01:01:39 36° NW 01:01:39 36° NW 01:04:41 10° N
USA 234 3.1 00:56:31 21° SE 01:01:10 80° SW 01:07:45 10° NW
Cosmos 1862 Rocket 3.9 01:04:13 53° WNW 01:04:13 53° WNW 01:08:18 10° N
SL-8 R/B 3.8 00:59:48 10° WNW 01:04:34 73° NNE 01:09:21 10° ESE
Cosmos 1953 2.8 01:01:25 10° N 01:05:13 49° ENE 01:05:20 49° E
Cosmos 1697 Rocket 4.0 01:01:51 10° NW 01:05:44 24° W 01:05:44 24° W
Cosmos 1980 Rocket 2.5 01:08:16 10° NW 01:13:43 47° WSW 01:14:01 46° WSW
Nadezhda 1 Rocket 4.2 01:08:49 10° N 01:15:14 68° E 01:18:17 32° SSE
Cosmos 540 Rocket 3.4 01:11:22 10° NNW 01:16:27 60° WSW 01:16:52 58° SW
MOZ.5/SAFIR/RUBIN 5/SL-8 3.8 01:18:21 50° SE 01:19:31 75° ENE 01:24:15 10° N
COSMOS 2406 3.5 01:19:32 42° WSW 01:21:12 57° WNW 01:26:53 10° NNE
ADEOS II 3.8 01:17:18 10° NE 01:21:32 24° E 01:24:12 17° SE
Cosmos 1356 Rocket 4.2 01:22:17 38° WNW 01:22:17 38° WNW 01:26:00 10° N
Cosmos 2369 3.9 01:19:18 10° NW 01:24:48 50° WSW 01:25:29 47° SW
Lacrosse 5 rocket 2.6 01:21:19 10° NW 01:25:11 39° NE 01:28:54 10° ESE
EXPRESS MD2 4.4 01:27:55 27° E 01:27:55 27° E 01:29:56 10° ENE
IDEFIX/ARIANE 42P 3.0 01:21:34 10° NNE 01:26:45 56° E 01:28:28 38° SSE
Okean 1-7 3.1 01:30:04 57° W 01:30:17 57° W 01:34:33 10° N
Meteor 1-16 Rocket 4.4 01:26:50 10° NNW 01:32:25 58° W 01:33:51 45° SW
Cosmos 1315 Rocket 2.6 01:39:37 71° W 01:39:45 72° W 01:43:40 10° N
Cosmos 1238 4.4 01:36:38 10° N 01:40:13 80° N 01:40:13 80° N
SJ 16-02 2.7 01:39:50 25° SE 01:41:11 31° E 01:44:59 10° NE
Helios 1A Rocket 4.1 01:43:06 26° WNW 01:43:06 26° WNW 01:45:40 10° NW
SL-16 R/B 2.3 01:38:37 10° NNW 01:44:19 75° ENE 01:49:03 15° SSE
CZ-2C R/B 4.0 01:39:39 10° NNE 01:45:15 47° E 01:48:25 24° SSE
Cosmos 1850 Rocket 4.0 01:46:14 44° SSW 01:47:59 87° ESE 01:53:17 10° NNE
Cosmos 2082 Rocket 3.5 01:48:50 21° W 01:51:29 29° NW 01:56:27 10° N
Cosmos 1709 Rocket 4.0 01:49:42 32° S 01:52:49 85° E 01:59:14 10° N
Cosmos 1741 Rocket 3.9 01:51:18 43° SSW 01:53:06 90° WNW 01:58:23 10° NNE
SL-16 R/B 3.5 01:49:27 10° SE 01:55:22 46° ENE 02:01:18 10° N
Cosmos 2219 Rocket 4.3 01:52:27 10° N 01:57:11 27° NE 02:01:55 10° ESE
Cosmos 1782 Rocket 3.4 01:53:54 10° N 01:58:18 82° W 01:59:39 44° S
Cosmos 1908 Rocket 4.1 01:54:48 10° NNW 01:58:58 40° W 01:59:24 39° WSW
CZ-2D R/B 2.2 01:54:36 10° NNE 02:00:06 81° ESE 02:02:42 32° S
Cosmos 1703 4.2 02:00:01 27° SE 02:01:27 39° E 02:04:58 10° NNE
Cosmos 2237 4.1 01:58:24 10° NNW 02:04:07 69° WSW 02:07:47 22° S
Cosmos 968 Rocket 3.4 02:02:10 37° S 02:04:14 81° ESE 02:09:23 10° NNE
Cosmos 1455 3.1 02:02:30 10° NNW 02:05:04 29° WNW 02:05:04 29° WNW
Genesis I 3.0 02:05:37 56° SSE 02:06:06 64° ESE 02:09:37 10° NE
Cosmos 2360 Rocket 2.9 02:00:45 10° NNW 02:06:21 56° ENE 02:11:54 10° SE
CRYOSAT 2 4.4 02:03:16 10° N 02:08:11 75° E 02:10:48 28° S
DELTA 2 R/B (1) 3.6 02:06:58 25° WSW 02:10:06 58° S 02:15:32 10° ESE
RESURS DK-1 4.1 02:06:38 10° N 02:10:19 32° ENE 02:13:59 10° ESE
MSX 3.8 02:07:21 10° N 02:13:05 71° WNW 02:16:00 30° SSW
Resurs 1-4 Rocket 2.1 02:09:17 10° N 02:14:31 72° WNW 02:17:04 31° SSW
Cosmos 841 Rocket 3.9 02:09:47 10° NW 02:14:41 42° WSW 02:16:19 32° SW
H-2A R/B 4.0 02:15:01 10° N 02:18:45 40° WNW 02:19:48 33° WSW
FENGYUN 3A 3.7 02:18:36 10° NNE 02:24:00 82° ESE 02:27:27 23° S
OAO 3 Rocket 4.0 02:24:07 29° SSW 02:24:33 30° S 02:28:48 10° SE
Cosmos 2278 4.2 02:20:49 10° NW 02:26:05 39° WSW 02:28:37 26° SSW
SL-24 R/B 4.3 02:28:16 19° S 02:31:49 84° W 02:36:39 10° N
CZ-2C R/B 2.8 02:29:15 25° SSW 02:32:04 50° W 02:37:07 10° NNW
Cosmos 2242 Rocket 3.9 02:30:52 30° SW 02:32:44 51° WNW 02:37:07 10° N
Cosmos 1825 3.9 02:33:23 10° SSE 02:36:15 25° E 02:39:09 10° NNE
SAR-Lupe-1 4.4 02:35:38 10° NNE 02:39:10 60° ESE 02:41:25 21° S
Cosmos 2333 Rocket 2.2 02:33:35 10° NNW 02:39:20 89° ENE 02:45:05 10° SSE
Sich 1 Rocket 4.4 02:35:11 10° N 02:39:35 51° ENE 02:43:55 10° SSE
Cosmos 2098 Rocket 3.7 02:34:49 10° N 02:40:06 81° W 02:46:17 10° S
Cosmos 1953 4.5 02:39:09 10° WNW 02:40:27 12° W 02:40:27 12° W
SL-27 R/B 2.2 02:40:26 41° WSW 02:41:00 49° WNW 02:43:45 10° N
Cosmos 2151 Rocket 4.1 02:37:41 10° N 02:42:08 60° E 02:46:30 10° SSE
Cosmos 1892 3.8 02:39:18 11° SSE 02:42:19 36° E 02:45:35 10° NNE
Cosmos 1814 Rocket 3.9 02:37:59 10° NNW 02:43:10 68° WSW 02:48:23 10° S
Cosmos 2292 4.4 02:40:35 10° N 02:43:46 88° E 02:47:14 13° S
Cosmos 2322 Rocket 2.2 02:38:20 10° NNW 02:43:53 59° WSW 02:49:25 10° S
USA 234 4.3 02:43:44 20° SW 02:44:48 21° WSW 02:49:35 10° WNW
Cosmos 1242 Rocket 3.8 02:44:54 18° WNW 02:45:05 18° WNW 02:47:11 10° NNW
SL-8 R/B 4.3 02:42:30 10° WNW 02:46:47 33° SW 02:51:02 10° SSE
Meteor 2-5 Rocket 3.8 02:43:00 19° SSW 02:47:25 75° W 02:53:24 10° N
SL-4 R/B 2.7 02:47:25 23° SSW 02:49:49 47° SE 02:54:06 10° ENE
Cosmos 1408 3.7 02:53:36 19° W 02:54:08 20° WNW 02:56:26 10° NNW
Cosmos 2074 Rocket 4.0 02:48:44 11° S 02:54:40 88° ESE 03:00:55 10° N
Okean 2 Rocket 3.2 02:50:37 10° N 02:55:01 75° E 02:59:25 10° SSE
Cosmos 1674 Rocket 3.6 02:52:26 14° S 02:56:17 81° E 03:00:44 10° N
Cosmos 1570 Rocket 4.3 02:55:42 10° NNW 03:01:02 73° ENE 03:06:21 10° SSE
ADEOS II 2.6 02:56:21 10° N 03:01:18 44° WNW 03:05:05 17° SW
Tiangong -0.4 03:00:18 17° S 03:01:21 20° SSE 03:03:40 10° ESE
Cosmos 1833 4.4 02:58:20 18° SW 03:02:33 62° WNW 03:08:10 10° NNE
Lacrosse 5 rocket 2.0 02:59:55 10° WNW 03:03:24 29° SW 03:06:44 10° S
IDEFIX/ARIANE 42P 4.2 03:01:59 10° NNW 03:05:51 21° WNW 03:09:13 12° WSW
ALOS 2.4 03:02:08 10° N 03:06:43 62° WNW 03:10:34 14° SSW
METEOR-M 4.5 03:05:12 10° NNE 03:10:33 68° ESE 03:15:51 10° S
Cosmos 2184 Rocket 4.0 03:06:43 10° SSW 03:12:52 71° W 03:19:09 10° N
Cosmos 1378 Rocket 3.7 03:10:03 15° SSW 03:13:31 54° W 03:17:44 10° N
Cosmos 405 Rocket 2.4 03:10:37 10° NNW 03:14:14 80° W 03:17:52 10° S
CZ-2C R/B 3.0 03:14:31 10° NNE 03:19:12 54° E 03:23:43 10° S
ATLAS CENTAUR R/B 2.4 03:16:26 10° S 03:19:32 31° ESE 03:22:41 10° NE
SJ 16-02 2.7 03:16:36 13° WSW 03:19:32 25° WNW 03:23:06 10° N
Envisat 3.1 03:14:37 10° NNE 03:19:43 82° ESE 03:24:47 10° SSW
Okean 1 Rocket 3.0 03:17:14 10° N 03:21:35 90° SW 03:25:54 10° S
Cosmos 2154 Rocket 4.0 03:17:57 10° SSW 03:24:05 71° W 03:30:19 10° N
Nadezhda 3 Rocket 4.0 03:18:21 10° N 03:24:45 81° W 03:31:03 10° S
CZ-2C R/B 4.5 03:19:55 10° N 03:24:45 28° WNW 03:29:26 10° WSW
UNK 4.0 03:20:31 10° S 03:24:58 47° W 03:29:28 10° NNW
Cosmos 158 Rocket 4.2 03:20:29 10° NNW 03:25:54 79° ENE 03:31:14 10° SSE
Cosmos 839 Rocket 4.2 03:20:20 10° NW 03:27:04 53° WSW 03:33:01 10° S
Meteor 2-11 Rocket 4.4 03:21:26 10° S 03:27:31 84° W 03:33:38 10° N
SL-16 R/B 3.7 03:24:24 10° WNW 03:27:41 16° W 03:30:48 10° SW
Cosmos 2322 3.9 03:24:21 10° NNW 03:30:05 78° ENE 03:35:46 10° SSE
ATLAS 2AS CENTAUR R/B 2.6 03:25:08 10° NW 03:31:58 81° WSW 03:38:33 10° SSE
NOAA 11 4.2 03:31:09 10° NNE 03:36:41 84° WNW 03:42:10 10° SSW
SL-16 R/B 3.3 03:33:37 10° SSW 03:39:03 31° W 03:44:34 10° NW
CZ-2D R/B 4.0 03:36:11 10° NNW 03:39:24 16° WNW 03:42:35 10° W
Cosmos 2219 Rocket 2.4 03:35:56 10° NW 03:41:23 51° WSW 03:46:51 10° S
BREEZE-M DEB (TANK) 1.9 03:40:37 10° WNW 03:43:20 55° NNE 03:45:22 10° ESE
Thor Agena Rocket 3.8 03:40:20 10° NNE 03:45:34 78° ESE 03:50:49 10° S
RESURS DK-1 3.5 03:44:40 10° NW 03:47:53 23° WSW 03:51:03 10° SSW
CZ-4 R/B 4.1 03:44:23 10° N 03:48:56 52° WNW 03:53:33 10° SSW
Cosmos 2360 Rocket 3.4 03:45:37 10° NW 03:49:53 22° W 03:54:07 10° SSW
COSMOS 2428 2.8 03:44:30 10° NNW 03:50:12 89° NE 03:55:54 10° SSE
